Tracking 26325 objects as of 29-Nov-2022
HD Live streaming from Space Station
objects crossing your sky now

STARLINK 1032

Track STARLINK 1032 now!
10-day predictions
STARLINK 1032 is classified as:


NORAD ID: 44737
Int'l Code: 2019-074AA
Perigee: 553.2 km
Apogee: 555.6 km
Inclination: 53.1 °
Period: 95.6 minutes
Semi major axis: 6925 km
RCS: Unknown
Launch date: November 11, 2019
Source: United States (US)
Launch site: AIR FORCE EASTERN TEST RANGE (AFETR)
aabbcc
Your satellite tracking list
Your tracking list is empty




NASA's NSSDC Master Catalog

Two Line Element Set (TLE):
1 44737U 19074AA  22333.00762712 -.00001480  00000-0 -80471-4 0  9993
2 44737  53.0541 178.7376 0001730  64.3171 295.7997 15.06392051168271
Source of the keplerian elements: AFSPC